User: anonymous   Login
Location: Haliburton Scout Reserve
(45.0900°N, 78.3200°W)
Time: 19:15:17
(UTC-04:00)
Language:

IDEFIX/ARIANE 42P - Orbit

View from above orbital plane
View from above orbital plane
View from above satellite
View from above satellite

Ground track
Ground track

The orbit data is extracted from the following two-line orbital elements,

1 27422U 02021B   17141.90690653 -.00000003 +00000-0 +14956-4 0  9997
2 27422 098.2296 143.6363 0011390 319.6389 040.3948 14.29253332784814
Epoch (UTC): 21 May 2017 21:45:56
Eccentricity: 0.0011390
inclination: 98.2296°
perigee height: 786 km
apogee height: 802 km
right ascension of ascending node: 143.6363°
argument of perigee: 319.6389°
revolutions per day: 14.29253332
mean anomaly at epoch: 40.3948°
orbit number at epoch: 78481

The dashed part of the orbit path shows where the satellite is in the earth's shadow,  

DLR